sat.trackr.live / text

‹ back to catalog

USA 119

NORAD 23893 · 1996-029A

PAYLOAD ACTIVE UNKNOWN

§ Identity

Operator
Country
US
Launch date
1996-05-12
Launch site
AFWTR
Launch vehicle
Mass (kg)
RCS (m²)

External: N2YO · Heavens-Above · Gunter

§ Orbital elements

Epoch: 2026-09-19T19:25:15.201408Z

Period
106.94 min
Inclination
63.3177°
Eccentricity
0.0855970
Mean motion
13.46508569 rev/d
Perigee alt
446.3 km
Apogee alt
1,724.0 km
Semi-major
7,463.3 km
B*
1.1277e-4
RAAN
304.3744°
Arg perigee
50.6833°
Mean anomaly
316.6960°
Rev number
11,801

§ Raw data

USA 1191 23893U 96029A   26262.80920372  .00000597  00000+0  11277-3 0  99912 23893  63.3177 304.3744 0855970  50.6833 316.6960 13.46508569118017

JSON: /api/v1/satellites/23893 · /tle

For live sub-satellite position, see the globe view (requires WebGL).

§ Visibility from observer

Set your observer location to see the next 7 days of passes ≥ 10°. The values pass through the URL so the page stays shareable.

No JS? Fill the form by hand. The geolocation button needs JavaScript.